TimeEST,TemperatureF,Dew PointF,Humidity,Sea Level PressureIn,VisibilityMPH,Wind Direction,Wind SpeedMPH,Gust SpeedMPH,PrecipitationIn,Events,Conditions,WindDirDegrees,DateUTC
12:53 AM,50.0,46.9,89,29.94,9.0,East,3.5,-,0.03,Rain,Light Rain,90,2012-11-06 05:53:00
1:53 AM,50.0,48.0,93,29.96,4.0,Calm,Calm,-,0.08,Rain,Light Rain,0,2012-11-06 06:53:00
2:25 AM,48.2,48.2,100,29.95,5.0,Variable,3.5,-,0.05,Rain,Light Rain,0,2012-11-06 07:25:00
2:53 AM,48.9,48.0,97,29.94,6.0,Calm,Calm,-,0.07,Rain,Light Rain,0,2012-11-06 07:53:00
3:11 AM,48.2,48.2,100,29.94,4.0,East,3.5,-,0.00,Rain,Light Rain,80,2012-11-06 08:11:00
3:42 AM,48.2,48.2,100,29.94,4.0,SE,4.6,-,0.03,Rain,Light Rain,130,2012-11-06 08:42:00
3:53 AM,48.9,48.0,97,29.93,3.0,East,4.6,-,0.04,Rain,Light Rain,90,2012-11-06 08:53:00
4:53 AM,48.9,48.0,97,29.93,3.0,ESE,4.6,-,0.05,Rain,Rain,110,2012-11-06 09:53:00
5:01 AM,48.2,48.2,100,29.93,3.0,Variable,4.6,-,0.03,Rain,Heavy Rain,0,2012-11-06 10:01:00
5:17 AM,48.2,48.2,100,29.92,4.0,East,9.2,-,0.05,Rain,Rain,100,2012-11-06 10:17:00
5:49 AM,48.2,48.2,100,29.93,2.0,East,8.1,-,0.16,Rain,Heavy Rain,100,2012-11-06 10:49:00
5:53 AM,48.9,48.0,97,29.94,2.0,East,6.9,-,0.19,Rain,Heavy Rain,90,2012-11-06 10:53:00
5:58 AM,48.2,48.2,100,29.93,2.0,East,4.6,-,0.03,Rain,Heavy Rain,90,2012-11-06 10:58:00
6:05 AM,48.2,48.2,100,29.93,2.5,East,6.9,-,0.06,Rain,Heavy Rain,80,2012-11-06 11:05:00
6:12 AM,48.2,48.2,100,29.93,3.0,Variable,5.8,-,0.08,Rain,Rain,0,2012-11-06 11:12:00
6:19 AM,48.2,48.2,100,29.93,3.0,East,5.8,-,0.10,Rain,Rain,80,2012-11-06 11:19:00
6:53 AM,48.0,46.0,93,29.94,3.0,East,6.9,-,0.17,Rain,Rain,80,2012-11-06 11:53:00
7:36 AM,46.4,44.6,93,29.95,2.5,ENE,8.1,19.6,0.16,Rain,Rain,60,2012-11-06 12:36:00
7:53 AM,45.0,44.1,97,29.98,2.5,Variable,6.9,17.3,0.23,Rain,Rain,0,2012-11-06 12:53:00
8:00 AM,44.6,44.6,100,29.97,2.5,NE,9.2,-,0.03,Rain-Thunderstorm,Rain,50,2012-11-06 13:00:00
8:15 AM,44.6,42.8,93,29.97,2.5,NE,11.5,20.7,0.10,Rain,Rain,50,2012-11-06 13:15:00
8:53 AM,44.1,43.0,96,29.99,3.0,Variable,6.9,-,0.19,Rain,Light Rain,0,2012-11-06 13:53:00
9:53 AM,45.0,43.0,93,30.01,4.0,ENE,8.1,-,0.04,Rain,Light Rain,70,2012-11-06 14:53:00
10:53 AM,45.0,43.0,93,30.00,4.0,East,9.2,-,0.00,,Overcast,80,2012-11-06 15:53:00
11:53 AM,48.0,44.1,86,29.99,6.0,Variable,4.6,-,0.00,,Overcast,0,2012-11-06 16:53:00
12:33 PM,48.2,42.8,82,29.96,8.0,ENE,11.5,17.3,N/A,,Overcast,70,2012-11-06 17:33:00
12:53 PM,48.9,42.1,77,29.97,9.0,NE,6.9,26.5,N/A,,Overcast,40,2012-11-06 17:53:00
1:00 PM,48.2,42.8,82,29.95,9.0,NE,6.9,57.5,N/A,,Overcast,50,2012-11-06 18:00:00
1:53 PM,48.0,41.0,77,29.96,8.0,Variable,5.8,-,N/A,,Overcast,0,2012-11-06 18:53:00
2:53 PM,48.9,39.9,71,29.94,9.0,East,3.5,-,N/A,,Overcast,100,2012-11-06 19:53:00
3:53 PM,50.0,39.9,68,29.95,9.0,Calm,Calm,-,N/A,,Overcast,0,2012-11-06 20:53:00
4:45 PM,50.0,39.2,66,29.95,9.0,Calm,Calm,-,N/A,,Overcast,0,2012-11-06 21:45:00
4:53 PM,48.9,41.0,74,29.96,9.0,Calm,Calm,-,N/A,,Overcast,0,2012-11-06 21:53:00
5:53 PM,48.9,39.9,71,29.95,9.0,Calm,Calm,-,N/A,,Overcast,0,2012-11-06 22:53:00
6:53 PM,48.0,39.9,74,29.96,10.0,Calm,Calm,-,N/A,,Overcast,0,2012-11-06 23:53:00
7:53 PM,48.0,42.1,80,29.98,8.0,West,3.5,-,N/A,,Overcast,260,2012-11-07 00:53:00
8:53 PM,48.0,43.0,83,29.99,8.0,Calm,Calm,-,N/A,,Overcast,0,2012-11-07 01:53:00
9:53 PM,48.0,39.0,71,29.99,9.0,East,3.5,-,N/A,,Overcast,90,2012-11-07 02:53:00
10:53 PM,46.9,39.0,74,29.99,10.0,Calm,Calm,-,N/A,,Overcast,0,2012-11-07 03:53:00
11:53 PM,46.9,37.9,71,29.97,10.0,Calm,Calm,-,N/A,,Overcast,0,2012-11-07 04:53:00